{"data":{"norad_id":81824,"intl_designator":"","name":"UNKNOWN","alt_names":[],"object_type":"UNKNOWN","status":"UNKNOWN","operator":null,"country":null,"launch_date":null,"launch_site_code":null,"launch_vehicle":null,"mission":null,"orbit_class":"UNKNOWN","rcs_meters":null,"size_class":null,"mass_kg":null,"dimensions":null,"purposes":[],"wikipedia_slug":null,"has_3d_model":false,"image_url":null,"decayed_at":null,"tle_current":{"epoch":"2026-05-23T13:55:23.642400Z","epoch_age_seconds":205123,"freshness":"STALE","line1":"1 81824U          26143.58013475  .00002559  00000+0  87977-3 0  9993","line2":"2 81824  65.8411 254.7468 0048022 257.8487 101.7225 14.37085913647830","mean_motion":14.37085913,"eccentricity":0.0048022,"inclination_deg":65.8411,"raan_deg":254.7468,"arg_perigee_deg":257.8487,"mean_anomaly_deg":101.7225,"bstar":0.00087977,"rev_number":64783,"period_min":100.20277750785,"perigee_km":733.82499396135,"apogee_km":802.4607242401,"semimajor_km":7146.2798591007,"source":"CELESTRAK","updated_at":"2026-05-25T13:38:11.085003Z"}}}